Location: Stoke Bliss
(52.2667°N, 2.5167°W)
Time: 14:42:57
(UTC+00:00)

Cosmos 1943 Rocket - Pass Details

Date: 03 March 2021
Orbit: 811 x 844 km, 71.0° (Epoch: 13 April)

Event Time Altitude Azimuth Distance (km) Brightness Sun altitude
Rises 18:56:16 0° 320° (NW) 3,414 6.0 -10.4°
Reaches altitude 10° 19:00:16 10° 348° (NNW) 2,479 4.8 -11.0°
Maximum altitude 19:02:51 13° 15° (NNE) 2,264 4.3 -11.4°
Drops below altitude 10° 19:05:26 10° 42° (NE) 2,476 4.3 -11.8°
Enters shadow 19:06:45 - 53° (NE) 2,722 4.4 -12.0°
